Location: Saint-Hippolyte
(43.6394°N, 4.7559°E)
Time: 14:10:15
(UTC+00:00)

Cosmos 2227 Rocket - Pass Details

Date: 24 October 2020
Orbit: 839 x 845 km, 71.0° (Epoch: 25 November)

Event Time Altitude Azimuth Distance (km) Brightness Sun altitude
Rises 18:06:14 0° 339° (NNW) 3,406 5.6 -15.7°
Reaches altitude 10° 18:08:48 10° 346° (NNW) 2,468 4.8 -16.2°
Maximum altitude 18:14:13 45° 59° (ENE) 1,140 2.5 -17.2°
Enters shadow 18:16:58 26° 115° (ESE) 1,594 3.1 -17.7°
